www.pogodaiklimat.ru

Погода и климат >> Архив погоды >> Нигер >> Досо


ПОГОДА в Досо

  • Прогноз погоды в Досо
  • Монитор погоды в Досо

АРХИВ ПОГОДЫ в Досо

Время (UTC), дата Ветер
(напр.,м/с)
 
Видим.   Явления Облачность Т
(С)
Тd
(С)
f
(%)
Тe
(С)
Тes
(С)
Комфортность P
(гПа)
Po
(гПа)
Тmin
(С)
Tmax
(С)
R
(мм)
R24
(мм)
S
(см)
09 15.04 В 8 10 км 9/0
[Ac lent Cs]
+34.6 -8.0 6 +30 +32 жарко 1010.9 985.7
12 15.04 В 4 10 км 9/0
[Ac lent Cs]
+39.0 -6.3 5 +35 +46 очень
жарко
1009.8 984.7
15 15.04 В 6 10 км 9/0
[Ac lent Cs]
+41.5 -6.5 5 +37 +40 очень
жарко
1006.3 981.3
18 15.04 В 4 10 км 9/0
[Ac lent Cs]
+39.1 -4.5 6 +35 +35 очень
жарко
1007.0 981.9 +42.0
21 15.04 штиль 0 10 км 9/0
[Ac lent Cs]
+33.6 +4.5 16 +31 +31 жарко 1008.2 983.1
00 16.04 В 6 10 км 9/0
[Ac lent Cs]
+32.6 -1.0 12 +29 +29 жарко 1008.3 983.4
03 16.04 СВ 4 10 км 9/0
[Ac lent Cs]
+31.0 -1.1 13 +28 +28 жарко 1007.8 982.9
06 16.04 В 4 6000 м пыль 9/0
[Ac lent Cs]
+30.0 -1.8 13 +27 +27 жарко 1008.7 983.7 +29.8
09 16.04 СВ 6 4000 м пыль 9/0
[Ac lent Cs]
+35.2 -5.0 7 +31 +34 жарко 1010.1 985.0
12 16.04 В 10 3000 м пыль 9/0
[Ac lent Cs]
+38.5 -2.5 7 +34 +35 очень
жарко
1009.3 985.4
15 16.04 СВ 8 3000 м пыль 9/0
[Ac lent Cs]
+40.3 -1.0 8 +36 +38 очень
жарко
1007.6 982.7
18 16.04 СВ 4 3000 м пыль 9/0
[Ac lent Cs]
+38.5 +4.0 12 +35 +35 очень
жарко
1008.7 983.4 +42.0
21 16.04 В 4 3000 м пыль 9/0
[Ac lent Cs]
+35.0 +4.4 15 +32 +32 жарко 1008.3 983.3
00 17.04 В 4 4500 м пыль 9/0
[Ac lent Cs]
+32.8 +2.0 14 +30 +30 жарко 1008.9 984.0
03 17.04 штиль 0 4500 м пыль 9/0
[Ac lent Cs]
+29.5 +1.0 16 +27 +27 жарко 1008.8 983.7
06 17.04 В 4 4500 м пыль 9/0
[Ac lent Cs]
+28.8 +1.5 17 +27 +27 жарко 1008.4 983.3 +22.8
09 17.04 ЮВ 8 2500 м пыль 9/0
[Cs]
+35.0 -4.2 8 +31 +33 жарко 1009.2 984.2
12 17.04 ЮВ 6 3500 м пыль 9/0
[Cs]
+39.7 +0.2 9 +36 +43 очень
жарко
1008.5 983.6
15 17.04 СВ 4 4000 м пыль 9/0
[Cs]
+42.0 +2.0 9 +39 +44 очень
жарко
1005.5 980.7
18 17.04 В 4 4000 м пыль 9/0
[Cs]
+39.0 +0.4 9 +35 +35 очень
жарко
1005.9 980.9 +42.5
21 17.04 В 6 4000 м 9/0
[Cs]
+35.4 +0.4 11
00 18.04 штиль 0 4500 м пыль 9/0
[Cs]
+29.0 +5.4 22 +28 +28 жарко 1008.2 982.9
03 18.04 штиль 0 4500 м пыль 9/0
[Cs]
+26.4 +5.6 26 +26 +26 жарко 1006.7 981.7
06 18.04 В 4 4500 м пыль 9/0
[Cs]
+28.6 -1.7 14 +26 +26 жарко 1007.4 982.4 +26.4
09 18.04 В 8 3000 м пыль 9/0
[Cs]
+13.5 -2.8 32 +11 +13 1009.0 984.0
12 18.04 СВ 8 3000 м пыль 9/0
[Cs]
+40.2 -2.6 7 +36 +39 очень
жарко
1008.9 983.8
15 18.04 СВ 6 4500 м пыль 9/0
[Cs]
+41.5 0.0 8 +38 +41 очень
жарко
1006.1 981.1
18 18.04 СВ 4 4500 м пыль 9/0
[Cs]
+39.5 +0.6 9 +36 +36 очень
жарко
1005.2 980.2 +42.2
21 18.04 штиль 0 4500 м пыль 9/0
[Cs]
+33.0 +4.0 16 +30 +30 жарко 1006.1 981.0
00 19.04 В 4 4500 м пыль 9/0
[Cs]
+29.5 +5.2 21 +28 +28 жарко 1006.9 982.0
03 19.04 В 4 4500 м пыль 9/0
[Cs]
+25.0 +7.2 32 +25 +25 комфорт 1006.8 981.7
06 19.04 штиль 0 4500 м пыль 9/0
[Cs]
+24.8 +4.8 27 +24 +25 комфорт 1007.2 982.0 +24.0
09 19.04 Ю 36 4500 м пыль 9/0
[Cs]
+35.0 +0.5 11 +31 +31 жарко 1010.3 985.2
12 19.04 З 6 4000 м пыль 9/0
[Cs]
+39.7 +6.0 13 +37 +44 очень
жарко
1009.2 984.2
15 19.04 В 4 4500 м пыль 9/0
[Cs]
+41.0 0.0 8 +37 +43 очень
жарко
1006.3 981.2
18 19.04 штиль 0 4500 м пыль 9/0
[Cs]
+39.0 -1.4 8 +35 +35 очень
жарко
1006.6 981.4 +42.0
21 19.04 штиль 0 4500 м пыль 9/0
[Cs]
+32.0 +8.0 23 +31 +31 жарко 1006.8 981.8
00 20.04 штиль 0 4500 м пыль 9/0
[Cs]
+28.0 +9.6 32 +28 +28 жарко 1008.1 983.0
03 20.04 В 4 4500 м пыль 9/0
[Cs]
+26.0 +5.8 27 +25 +25 комфорт 1006.9 981.8
06 20.04 штиль 0 4500 м пыль 9/0
[Ac lent Cs]
+25.6 +5.0 27 +25 +25 комфорт 1008.7 983.2 +25.5
09 20.04 ЮЗ 6 4500 м пыль 9/0
[Cs]
+34.2 +19.0 41 +39 +43 очень
душно
1010.4 985.2
12 20.04 ЮВ 6 4500 м пыль 9/0
[Cs]
+40.3 +10.0 16 +39 +46 очень
жарко
1008.9 983.8
15 20.04 СВ 4 4500 м пыль 9/0
[Cs]
+42.2 +4.6 10 +39 +45 очень
жарко
1005.5 981.1
18 20.04 В 4 4000 м пыль 9/0
[Cs]
+40.0 +5.6 12 +37 +37 очень
жарко
1005.3 980.2 +42.8
21 20.04 штиль 0 6000 м пыль 9/0
[Ac lent Cs]
+34.5 +9.6 22 +33 +33 жарко 1006.8 981.8
00 21.04 штиль 0 6000 м пыль 9/0
[Ac lent Cs]
+32.0 +9.4 25 +31 +31 жарко 1009.6 981.8
03 21.04 В 4 6000 м пыль 9/0
[Ac lent Cs]
+30.8 +6.8 22 +29 +29 жарко 1007.0 982.1
06 21.04 штиль 0 6000 м пыль 9/0
[Ac lent Cs]
+28.5 +8.0 28 +28 +28 жарко 1007.0 982.0 +28.0
09 21.04 З 6 8000 м пыль 9/0
[Cs]
+35.5 +19.2 38 +40 +44 очень
душно
1008.7 983.7
12 21.04 З 4 8000 м пыль 9/0
[Cs]
+40.2 +16.2 25 +42 +54 опасность
перегрева
1007.6 982.7
15 21.04 В 4 8000 м пыль 9/0
[Ac lent Cs]
+41.6 +12.8 18 +41 +46 опасность
перегрева
1004.4 979.6
18 21.04 штиль 0 8000 м пыль 9/0
[Ac lent Cs]
+40.0 +13.0 20 +40 +40 очень
душно
1004.1 979.2 +42.5
21 21.04 штиль 0 8000 м пыль 9/0
[Cs]
+35.0 +14.3 29 +36 +36 очень
жарко
1005.4 980.5
00 22.04 штиль 0 10 км 9/0
[Ac lent Cs]
+31.2 +13.8 35 +33 +33 жарко 1005.5 980.7
03 22.04 штиль 0 10 км 9/0
[Ac lent Cs]
+31.6 +12.3 31 +32 +32 жарко 1004.3 979.6
06 22.04 Ю 4 10 км 9/0
[Ac lent Cs]
+31.5 +15.0 37 +34 +34 душно 1005.3 980.5 +31.0

 

Местоположение метеостанции Досо (Нигер): широта 13.01 долгота 3.20 высота над уровнем моря 213 м.

В архиве по умолчанию представлена погода в Досо за последнюю неделю. Архивные данные за месяц целиком и за предыдущие месяцы, начиная с января 2011 года, Вы можете получить, выбрав интересующий диапазон дат из раскрывающегося списка и нажав кнопку "Ввод!".


*Определитесь, кто Вы:
робот инопланетянин человек

Внимание! Время в таблицах - всемирное. Для получения местного времени необходимо прибавить поправку, которая равна 1 ч.

Смотрите также архив погоды в соседних городах и на ближайших метеорологических станциях:

Погода в Ниамее (Нигер) (123 км)
Погода в Гае (Нигер) (129 км)
Погода в Канди (Бенин) (211 км)
Погода в Тиллабери (Нигер) (231 км)
Погода в Вирнин-Конни (Нигер) (239 км)
Погода в Йелве (Нигерия) (291 км)
Погода в Тахве (Нигер) (305 км)
Погода в Фада-Нгурме (Буркина-Фасо) (326 км)
Погода в Натитингу (Бенин) (359 км)
Погода в Дори (Буркина-Фасо) (367 км)

Пояснения к столбцам:

Ветер - указаны скорость ветра в м/с - средняя за 10 мин, порывы в срок и между сроками (в фигурных скобках) и направление, откуда дует ветер: С - северный, СВ - северо-восточный, В - восточный, ЮВ - юго-восточный, Ю - южный, ЮЗ - юго-западный, З - западный, СЗ - северо-западный.
Видимость - горизонтальная дальность видимости в метрах или километрах. При видимости от 1 до 10 км при отсутствии осадков обычно наблюдается дымка, при ухудшении видимости до 1 км и менее - туман. В сухую погоду видимость может ухудшаться дымом, пылью или мглою.
Явления - указаны атмосферные явления, наблюдавшиеся в срок или в последний час перед сроком; фигурными скобками обозначены явления, наблюдавшиеся между сроками (за 1-3 часа до срока); квадратными скобками обозначены град или гололедные отложения с указанием их диаметра в мм.
Облачность - указаны через наклонную черту общая и нижняя облачность в баллах и высота нижней границы облаков в метрах; квадратными скобками обозначены формы облаков: Ci - перистые, Cs - перисто-слоистые, Cc - перисто-кучевые, Ac - высококучевые, As - высокослоистые, Sc - слоисто-кучевые, Ns - слоисто-дождевые, Cu - кучевые, Cb - кучево-дождевые. Подробнее классификацию облаков см. в Атласе облаков (PDF).
T - Температура воздуха - температура, измеренная на высоте 2 м над землей.
Td - Температура точки росы - температура, при понижении до которой содержащийся в воздухе водяной пар достигнет насыщения.
f - Относительная влажность воздуха - влажноcть воздуха, измеренная на высоте 2 м над землей.
Te - Эффективная температура - температура, которую ощущает одетый по сезону человек в тени. Характеристика душности погоды. При расчете учитывается влияние влажности воздуха и скорости ветра на теплоощущения человека.
Tes - Эффективная температура на солнце - температура, которую ощущает человек, с поправкой на солнечный нагрев. Характеристика знойности погоды. Зависит от высоты солнца над горизонтом, облачности и скорости ветра. Ночью, в пасмурную погоду, а также при ветре 12 м/с и более поправка равна нулю.
P - Атмосферное давление - приведенное к уровню моря атмосферное давление.
Po - Атмосферное давление - измеренное на уровне метеостанции атмосферное давление.
Tmin - Минимальная температура - минимум температуры воздуха на высоте 2 м над землей.
Tmax - Максимальная температура - максимум температуры воздуха на высоте 2 м над землей.
R - Количество осадков - Количество выпавших осадков за период времени, мм. При наведении курсора мыши на число - период времени, за который выпало указанное количество осадков.
R24 - Количество осадков - Количество выпавших осадков за 24 часа, мм.
S - Снежный покров - Высота снежного покрова, см. При наведении курсора мыши на число - состояние снежного покрова и степень покрытия местности в баллах.